Location: Newark
(30.2328°N, 54.2869°E)
Time: 06:56:33
(UTC+00:00)

Hubble Space Telescope - Pass Details

Date: 31 July 2019
Orbit: 536 x 540 km, 28.5° (Epoch: 21 August)

Event Time Altitude Azimuth Distance (km) Brightness Sun altitude
Exits shadow 00:04:37 48° 214° (SW) 699 0.9 -19.0°
Maximum altitude 00:05:21 58° 171° (S) 629 0.9 -18.8°
Drops below altitude 10° 00:09:25 10° 92° (E) 1,786 4.2 -18.1°
Sets 00:11:42 0° 88° (E) 2,676 5.3 -17.7°
